[[{"header":{"parameterUnit":"m.s-1","parameterCategory":1,"la1":30.2991,"la2":30.254,"lo1":-89.0895,"lo2":-89.0444,"dy":0.0017,"dx":0.0017,"nx":28,"ny":28,"refTime":"2025-12-19T03:00:00:Z","depth":0,"parameterNumber":2,"parameterNumberName":"U-component_of_WINDS"},"data":[0,0,0,0,0,0,0,0,0,0,0,0,0,0,0,0,0,0,0,0,0,0,0,0,0,0,0,0,0,0,0,0,0,0,0,0,0,0,0,0,0,0,0,0,0,0,0,0,0,0,0,0,0,0,0,0,0,0,-0.8065,-0.8065,0,-0.8091,-0.8092,-0.8092,-0.8062,-0.8061,-0.806,-0.8059,-0.8088,-0.809,-0.8092,0,0,0,0,0,0,0,0,0,0,0,0,0,-0.7989,-0.7991,-0.8065,-0.8065,-0.8065,-0.8091,-0.8092,-0.8092,-0.8062,-0.8061,-0.806,-0.8058,-0.8088,-0.809,-0.8092,0,0,0,0,0,0,0,0,0,0,0,0,0,-0.802,-0.7991,-0.8064,-0.8053,-0.8053,-0.8091,-0.8092,-0.8092,-0.8063,-0.8061,-0.8059,-0.8058,-0.8087,-0.809,-0.8092,-0.8144,0,0,-0.8101,-0.8102,0,0,0,0,0,0,0,0,-0.8018,-0.8022,-0.8055,-0.8054,-0.8054,-0.8072,-0.8076,-0.811,-0.8063,-0.8059,-0.8059,-0.8057,-0.8084,-0.8087,-0.8096,-0.8145,-0.8146,-0.8101,-0.8103,-0.8104,-0.8105,0,0,0,0,0,0,0,-0.8016,-0.8021,-0.8075,-0.8055,-0.8055,-0.8048,-0.805,-0.8082,-0.8081,-0.8059,-0.8057,-0.8061,-0.8084,-0.8093,-0.8096,-0.8147,-0.8101,-0.8103,-0.8105,-0.8106,-0.824,-0.8242,0,0,0,0,0,0,-0.8015,-0.802,-0.8074,-0.8076,-0.8031,-0.8051,-0.8053,-0.8068,-0.808,-0.8081,-0.8062,-0.8059,-0.809,-0.8093,-0.8097,-0.8159,-0.8104,-0.8106,-0.8108,-0.8238,-0.824,-0.8242,0,0,0,0,0,0,-0.8013,-0.802,-0.8073,-0.8047,-0.8053,-0.8054,-0.807,-0.8069,-0.8079,-0.8083,-0.8082,-0.8072,-0.8088,-0.8093,-0.8132,-0.816,-0.8108,-0.811,-0.8236,-0.8239,-0.8241,-0.8282,0,0,0,0,0,0,-0.8011,-0.802,-0.8039,-0.8048,-0.8055,-0.8108,-0.8072,-0.8071,-0.8083,-0.808,-0.8092,-0.8092,-0.8087,-0.8128,-0.8135,-0.8162,-0.8112,-0.8233,-0.8237,-0.824,-0.8279,-0.8286,-0.8293,0,0,0,0,0,-0.8009,-0.8049,-0.804,-0.8047,-0.8079,-0.8109,-0.8113,-0.8106,-0.8086,-0.8105,-0.8108,-0.8092,-0.8155,-0.8133,-0.814,-0.8169,-0.8232,-0.8236,-0.824,-0.8275,-0.8285,-0.8293,0,0,0,0,0,0,-0.8044,-0.805,-0.804,-0.8085,-0.8097,-0.8104,-0.8129,-0.8116,-0.8134,-0.813,-0.8121,-0.8124,-0.8166,-0.8171,-0.8145,-0.8219,-0.819,-0.8196,-0.8215,-0.8223,-0.823,-0.8229,-0.8115,0,0,0,0,0,-0.8057,-0.808,-0.8085,-0.8124,-0.813,-0.8129,-0.8141,-0.8135,-0.8147,-0.8152,-0.8157,-0.817,-0.8193,-0.8208,-0.8229,-0.8279,-0.8281,-0.8302,-0.8309,-0.8315,-0.8321,-0.8348,-0.8357,-0.8256,-0.8256,-0.8256,0,0,-0.8084,-0.809,-0.8106,-0.8131,-0.814,-0.8165,-0.8133,-0.8161,-0.818,-0.8156,-0.8194,-0.8198,-0.8212,-0.8256,-0.8276,-0.8262,-0.8349,-0.832,-0.8325,-0.8327,-0.8353,-0.8363,-0.8371,-0.8259,-0.8259,-0.8258,0,0,-0.8147,-0.8154,-0.8187,-0.8196,-0.8209,-0.8208,-0.8216,-0.8225,-0.8227,-0.8264,-0.8247,-0.8269,-0.8309,-0.8319,-0.833,-0.8397,-0.8383,-0.8404,-0.8441,-0.8468,-0.8476,-0.8483,-0.8508,-0.8517,-0.8409,-0.8409,-0.8409,0,-0.8179,-0.8216,-0.8206,-0.8236,-0.8248,-0.8227,-0.8262,-0.8271,-0.829,-0.8299,-0.8283,-0.8332,-0.8339,-0.8387,-0.8403,-0.8412,-0.8422,-0.8403,-0.8476,-0.8483,-0.8489,-0.8513,-0.8522,-0.8412,-0.8411,-0.8411,-0.8411,0,-0.8256,-0.8282,-0.8308,-0.8327,-0.8341,-0.8373,-0.8369,-0.8385,-0.8377,-0.8377,-0.8416,-0.8424,-0.8447,-0.8457,-0.845,-0.8504,-0.8494,-0.8477,-0.8448,-0.8501,-0.8523,-0.8532,-0.8415,-0.8414,-0.8414,-0.8413,0,0,-0.8343,-0.8356,-0.8366,-0.8374,-0.8387,-0.8407,-0.8438,-0.846,-0.8474,-0.8488,-0.8515,-0.8548,-0.8532,-0.8544,-0.8537,-0.8561,-0.8614,-0.854,-0.854,-0.8555,-0.8675,-0.8689,-0.87,-0.8605,-0.8606,-0.8608,-0.8674,0,-0.8407,-0.846,-0.8452,-0.8504,-0.8529,-0.8509,-0.8536,-0.8547,-0.8548,-0.8569,-0.857,-0.8595,-0.8571,-0.8578,-0.86,-0.8603,-0.8638,-0.8598,-0.863,-0.8632,-0.8629,-0.8711,-0.8726,-0.8789,-0.8683,-0.8684,-0.8685,0,-0.8489,-0.8506,-0.856,-0.8569,-0.8579,-0.8603,-0.8623,-0.8643,-0.8655,-0.8654,-0.8668,-0.8657,-0.8689,-0.8658,-0.8702,-0.8675,-0.8687,-0.869,-0.8693,-0.8697,-0.8663,-0.8719,-0.8809,-0.8819,-0.8699,-0.8698,-0.8697,0,-0.8548,-0.8584,-0.8622,-0.8629,-0.8641,-0.8658,-0.8664,-0.8674,-0.8688,-0.8705,-0.8714,-0.8735,-0.8746,-0.8763,-0.8758,-0.8736,-0.8804,-0.8772,-0.8805,-0.8805,-0.8821,-0.882,-0.8916,-0.8827,-0.8827,-0.8827,-0.8827,0,-0.8621,-0.8656,-0.8649,-0.8672,-0.871,-0.87,-0.8738,-0.8741,-0.8751,-0.8775,-0.8758,-0.8781,-0.8773,-0.8796,-0.8792,-0.883,-0.8835,-0.8835,-0.8834,-0.8838,-0.8838,-0.8847,-0.8843,-0.8829,-0.8829,-0.8828,-0.8828,0,-0.8695,-0.8691,-0.8731,-0.8738,-0.8741,-0.8769,-0.8775,-0.8797,-0.8796,-0.8827,-0.8833,-0.8833,-0.8858,-0.8855,-0.8883,-0.8881,-0.8928,-0.8921,-0.8924,-0.8923,-0.8956,-0.8954,-0.9062,-0.9076,-0.8977,-0.8978,-0.8979,0,-0.8743,-0.8768,-0.8778,-0.8793,-0.88,-0.8823,-0.8837,-0.8829,-0.8844,-0.886,-0.888,-0.8904,-0.8923,-0.8965,-0.8967,-0.8989,-0.8983,-0.902,-0.8987,-0.899,-0.8986,-0.8985,-0.8988,-0.9027,-0.9028,-0.9029,-0.903,0,-0.8828,-0.8825,-0.8845,-0.8865,-0.8881,-0.8897,-0.891,-0.8923,-0.8916,-0.8934,-0.896,-0.8974,-0.9003,-0.9028,-0.9049,-0.9055,-0.9042,-0.904,-0.9049,-0.9053,-0.9054,-0.9055,-0.8944,-0.9038,-0.9037,-0.9036,-0.9036,-0.9036,-0.8891,-0.8913,-0.8923,-0.8947,-0.8956,-0.8969,-0.899,-0.8992,-0.9013,-0.9036,-0.903,-0.9059,-0.9071,-0.9097,-0.9106,-0.9129,-0.9116,-0.9128,-0.9132,-0.9135,-0.914,-0.9049,-0.9132,-0.9132,-0.9132,-0.9132,-0.9132,0,-0.8976,-0.8982,-0.9003,-0.9023,-0.9041,-0.9026,-0.904,-0.9057,-0.9083,-0.9095,-0.9113,-0.9143,-0.9167,-0.9171,-0.9193,-0.9211,-0.9206,-0.9218,-0.9217,-0.9219,-0.915,-0.914,-0.9222,-0.9222,-0.9222,-0.9222,-0.9222,-0.9222,-0.9023,-0.906,-0.9058,-0.91,-0.9105,-0.9134,-0.9144,-0.9156,-0.9165,-0.9199,-0.9219,-0.9221,-0.923,-0.9253,-0.9274,-0.9275,-0.9284,-0.9299,-0.9297,-0.9233,-0.9224,-0.9215,-0.9206,-0.93,-0.9301,-0.9365,-0.9365,-0.9366]},{"header":{"parameterUnit":"m.s-1","parameterCategory":1,"la1":30.2991,"la2":30.254,"lo1":-89.0895,"lo2":-89.0444,"dy":0.0017,"dx":0.0017,"nx":28,"ny":28,"refTime":"2025-12-19T03:00:00:Z","depth":0,"parameterNumber":3,"parameterNumberName":"V-component_of_WINDS"},"data":[0,0,0,0,0,0,0,0,0,0,0,0,0,0,0,0,0,0,0,0,0,0,0,0,0,0,0,0,0,0,0,0,0,0,0,0,0,0,0,0,0,0,0,0,0,0,0,0,0,0,0,0,0,0,0,0,0,0,-3.3581,-3.3582,0,-3.3703,-3.3705,-3.3706,-3.3681,-3.3679,-3.3676,-3.3674,-3.3796,-3.3801,-3.3807,0,0,0,0,0,0,0,0,0,0,0,0,0,-3.3323,-3.3328,-3.3581,-3.3582,-3.3584,-3.3703,-3.3705,-3.3706,-3.3681,-3.3678,-3.3676,-3.3673,-3.3795,-3.3801,-3.3807,0,0,0,0,0,0,0,0,0,0,0,0,0,-3.3439,-3.333,-3.3581,-3.3586,-3.3588,-3.3703,-3.3705,-3.3707,-3.3682,-3.3678,-3.3675,-3.3672,-3.3792,-3.38,-3.3808,-3.3925,0,0,-3.3833,-3.3836,0,0,0,0,0,0,0,0,-3.3433,-3.3449,-3.3584,-3.3586,-3.3588,-3.3673,-3.3659,-3.378,-3.3683,-3.3646,-3.3674,-3.367,-3.3758,-3.3769,-3.3799,-3.3931,-3.3936,-3.3833,-3.3838,-3.3842,-3.3844,0,0,0,0,0,0,0,-3.3425,-3.3443,-3.3629,-3.3586,-3.3588,-3.3581,-3.3594,-3.3682,-3.3719,-3.3649,-3.3647,-3.3662,-3.3758,-3.3791,-3.3801,-3.3938,-3.3833,-3.384,-3.3845,-3.3848,-3.4172,-3.4176,0,0,0,0,0,0,-3.3415,-3.3437,-3.3625,-3.3633,-3.3501,-3.3589,-3.3603,-3.3649,-3.3718,-3.3726,-3.3665,-3.3661,-3.3779,-3.3792,-3.3806,-3.3948,-3.3842,-3.3849,-3.3854,-3.4169,-3.4173,-3.4177,0,0,0,0,0,0,-3.341,-3.3432,-3.362,-3.3535,-3.3558,-3.3597,-3.3649,-3.3653,-3.3686,-3.3731,-3.3737,-3.3692,-3.3777,-3.3794,-3.3896,-3.3952,-3.3853,-3.386,-3.4164,-3.417,-3.4175,-3.4233,0,0,0,0,0,0,-3.3403,-3.343,-3.3476,-3.3536,-3.3563,-3.371,-3.3652,-3.3658,-3.37,-3.3696,-3.3757,-3.3764,-3.3776,-3.3884,-3.3904,-3.3961,-3.3866,-3.4159,-3.4167,-3.4174,-3.4226,-3.424,-3.4251,0,0,0,0,0,-3.3393,-3.3486,-3.3478,-3.3501,-3.362,-3.3713,-3.3728,-3.374,-3.3705,-3.3751,-3.3779,-3.3762,-3.3942,-3.3895,-3.3917,-3.3977,-3.4156,-3.4165,-3.4173,-3.422,-3.4237,-3.4251,0,0,0,0,0,0,-3.343,-3.3494,-3.3486,-3.3601,-3.3652,-3.3708,-3.3766,-3.3757,-3.3819,-3.3812,-3.3823,-3.3837,-3.3941,-3.3969,-3.3915,-3.4094,-3.4044,-3.4057,-3.4072,-3.4089,-3.4101,-3.4092,-3.3873,0,0,0,0,0,-3.3451,-3.3522,-3.3574,-3.367,-3.3696,-3.3727,-3.3768,-3.3773,-3.3826,-3.3847,-3.3883,-3.3934,-3.4002,-3.4047,-3.4112,-3.423,-3.4243,-3.4282,-3.4295,-3.4305,-3.4317,-3.4382,-3.44,-3.4206,-3.4205,-3.4205,0,0,-3.3496,-3.354,-3.3584,-3.3679,-3.3719,-3.3791,-3.3745,-3.3823,-3.3877,-3.3858,-3.3957,-3.3985,-3.4043,-3.4154,-3.4204,-3.418,-3.4373,-3.4316,-3.4324,-3.433,-3.4393,-3.4411,-3.4428,-3.4211,-3.421,-3.4209,0,0,-3.3616,-3.3656,-3.3741,-3.3783,-3.3845,-3.3865,-3.3885,-3.3944,-3.3962,-3.4062,-3.405,-3.4113,-3.423,-3.4272,-3.4309,-3.4446,-3.4433,-3.4467,-3.4533,-3.4597,-3.4612,-3.4626,-3.4676,-3.4693,-3.4478,-3.4478,-3.4478,0,-3.3663,-3.3773,-3.3786,-3.3866,-3.3909,-3.3896,-3.3983,-3.4022,-3.4102,-3.4131,-3.4103,-3.4251,-3.4289,-3.441,-3.4443,-3.4473,-3.4497,-3.446,-3.4609,-3.4623,-3.4636,-3.4684,-3.4702,-3.4482,-3.4481,-3.4481,-3.4481,0,-3.383,-3.3906,-3.3967,-3.4047,-3.4096,-3.4179,-3.4203,-3.4251,-3.4253,-3.4275,-3.4377,-3.4423,-3.4497,-3.4526,-3.4527,-3.4648,-3.4631,-3.4606,-3.4556,-3.4658,-3.4703,-3.4722,-3.4487,-3.4486,-3.4485,-3.4484,0,0,-3.3975,-3.4061,-3.4083,-3.412,-3.4188,-3.4247,-3.4329,-3.4404,-3.4445,-3.45,-3.457,-3.467,-3.4648,-3.469,-3.4696,-3.4752,-3.4859,-3.472,-3.4721,-3.4745,-3.4995,-3.5014,-3.5035,-3.485,-3.4854,-3.4856,-3.4991,0,-3.4101,-3.4248,-3.4263,-3.4394,-3.4465,-3.4455,-3.4527,-3.4576,-3.46,-3.4663,-3.4688,-3.476,-3.4725,-3.475,-3.4805,-3.4834,-3.4909,-3.4824,-3.4915,-3.4918,-3.4902,-3.5059,-3.5079,-3.5203,-3.5008,-3.5011,-3.5013,0,-3.4268,-3.433,-3.447,-3.4529,-3.456,-3.4624,-3.4694,-3.4755,-3.4811,-3.4824,-3.4872,-3.487,-3.4955,-3.4901,-3.5018,-3.4961,-3.4998,-3.5018,-3.5023,-3.5033,-3.4972,-3.5073,-3.5243,-3.5262,-3.5041,-3.5039,-3.5037,0,-3.4361,-3.448,-3.4579,-3.461,-3.4682,-3.4728,-3.476,-3.4812,-3.4856,-3.4917,-3.4946,-3.5015,-3.5054,-3.5107,-3.5125,-3.5084,-3.5241,-3.5189,-3.5255,-3.5255,-3.5289,-3.5287,-3.5469,-3.5312,-3.5312,-3.5311,-3.5311,0,-3.4502,-3.4587,-3.4622,-3.4683,-3.4779,-3.4795,-3.4889,-3.4918,-3.4965,-3.5031,-3.5026,-3.5088,-3.5107,-3.5172,-3.5186,-3.5281,-3.5298,-3.5311,-3.5314,-3.5312,-3.5311,-3.5338,-3.533,-3.5316,-3.5315,-3.5314,-3.5313,0,-3.4622,-3.4649,-3.4757,-3.4816,-3.4833,-3.4902,-3.4952,-3.5011,-3.5034,-3.5118,-3.5138,-3.5174,-3.5251,-3.5274,-3.5365,-3.5375,-3.5487,-3.5481,-3.5469,-3.5469,-3.5534,-3.5528,-3.5741,-3.577,-3.5593,-3.5595,-3.5596,0,-3.471,-3.4776,-3.4844,-3.4889,-3.4923,-3.4995,-3.5041,-3.5058,-3.5106,-3.5175,-3.5226,-3.5302,-3.5364,-3.5487,-3.552,-3.5591,-3.5587,-3.5657,-3.5598,-3.5594,-3.559,-3.5586,-3.5593,-3.5668,-3.567,-3.5671,-3.5673,0,-3.4864,-3.4875,-3.4942,-3.5014,-3.507,-3.5127,-3.5182,-3.5218,-3.5244,-3.5298,-3.5377,-3.5425,-3.552,-3.5596,-3.5667,-3.5699,-3.5691,-3.5691,-3.571,-3.571,-3.57,-3.5707,-3.55,-3.5686,-3.5685,-3.5684,-3.5683,-3.5683,-3.4972,-3.5031,-3.5088,-3.5164,-3.5207,-3.5259,-3.5318,-3.5349,-3.5416,-3.5496,-3.5502,-3.5588,-3.5642,-3.5738,-3.5773,-3.5841,-3.582,-3.5848,-3.5855,-3.5862,-3.5868,-3.5689,-3.5853,-3.5853,-3.5853,-3.5852,-3.5852,0,-3.5127,-3.5163,-3.5233,-3.5311,-3.537,-3.5358,-3.5419,-3.5469,-3.5546,-3.5598,-3.566,-3.5751,-3.5825,-3.5865,-3.5938,-3.5985,-3.5983,-3.6003,-3.6001,-3.6008,-3.5881,-3.5858,-3.6004,-3.6004,-3.6004,-3.6004,-3.6004,-3.6004,-3.5214,-3.5314,-3.5331,-3.5453,-3.5488,-3.5574,-3.561,-3.5658,-3.57,-3.5803,-3.5865,-3.5891,-3.5939,-3.6016,-3.6083,-3.6093,-3.6121,-3.6144,-3.6152,-3.6032,-3.6017,-3.6002,-3.598,-3.615,-3.615,-3.6274,-3.6275,-3.6276]}]]